Location: Puketoi
(40.5833°S, 176.0167°E)
Time: 15:16:05
(UTC+00:00)

NOSS 3-4 (A) - Pass Details

Date: 08 February 2023
Orbit: 835 x 1377 km, 63.4° (Epoch: 19 March)

Event Time Altitude Azimuth Distance (km) Brightness Sun altitude
Rises 15:52:49 0° 216° (SW) 4,030 6.8 -17.3°
Reaches altitude 10° 15:55:42 10° 216° (SW) 2,982 6.1 -16.9°
Maximum altitude 16:02:43 84° 303° (WNW) 1,009 3.5 -15.8°
Drops below altitude 10° 16:08:46 10° 30° (NNE) 2,599 5.7 -14.9°
Sets 16:11:08 0° 30° (NNE) 3,483 6.4 -14.5°
